Morrisville, NC

12:26 PM EST on December 08, 2016 (GMT -0500)
Raleigh-Durham International

Weather History for KRDU - May, 2014

Change the Weather History Date:

Tuesday, May 27, 2014

  Actual Average Record
Temperature  
Mean Temperature 78 °F 71 °F  
Max Temperature 90 °F 82 °F 96 °F (1916)
Min Temperature 66 °F 60 °F 41 °F (1961)
Degree Days  
Heating Degree Days 0 1  
Month to date heating degree days 27 51  
Since 1 July heating degree days 3478 3240  
Cooling Degree Days 13 7  
Month to date cooling degree days 152 119  
Year to date cooling degree days 183 180  
Growing Degree Days 29 (Base 50)    
Moisture  
Dew Point 66 °F    
Average Humidity 70    
Maximum Humidity 90    
Minimum Humidity 50    
Precipitation  
Precipitation 0.22 in 0.11 in 3.56 in (1932)
Month to date precipitation 3.94 2.78  
Year to date precipitation 19.19 16.54  
Sea Level Pressure  
Sea Level Pressure 30.03 in    
Wind  
Wind Speed 6 mph (WSW)    
Max Wind Speed 25 mph    
Max Gust Speed 41 mph    
Visibility 9 miles    
Events Rain , Thunderstorm    
T = Trace of Precipitation, MM = Missing Value Source: NWS Daily Summary

Daily Weather History Graph

Daily Weather History Graph

Search for Another Location

Airport or City:

Trip Planner

Search our weather history database for the weather conditions in past years. The results will help you decide how hot, cold, wet, or windy it might be!

Date:

Astronomy

May. 27, 2014 Rise Set
Actual Time 6:02 AM EDT 8:22 PM EDT
Civil Twilight 5:32 AM EDT 8:52 PM EDT
Nautical Twilight 4:56 AM EDT 9:28 PM EDT
Astronomical Twilight 4:17 AM EDT 10:08 PM EDT
Moon 5:19 AM EDT (5/27) 7:26 PM EDT (5/27)
Length of Visible Light 15h 19m
Length of Day
14h 20m
Waning Crescent, 1% of the Moon is Illuminated
May 27
Waning Crescent
May 28
New
Jun 5
First Quarter
Jun 13
Full
Jun 19
Last Quarter

Hourly Weather History & Observations

Time (EDT) Temp. Heat Index Dew Point Humidity Pressure Visibility Wind Dir Wind Speed Gust Speed Precip Events Conditions
12:51 AM 71.1 °F - 66.0 °F 84% 30.10 in 10.0 mi SSW 5.8 mph - 0.09 in   Mostly Cloudy
1:51 AM 70.0 °F - 66.0 °F 87% 30.09 in 10.0 mi SW 4.6 mph - N/A   Mostly Cloudy
2:51 AM 68.0 °F - 64.0 °F 87% 30.08 in 10.0 mi WSW 6.9 mph - N/A   Scattered Clouds
3:51 AM 69.1 °F - 64.0 °F 84% 30.07 in 10.0 mi SW 9.2 mph - N/A   Scattered Clouds
4:51 AM 68.0 °F - 64.0 °F 87% 30.07 in 10.0 mi SW 10.4 mph - N/A   Scattered Clouds
5:51 AM 68.0 °F - 64.0 °F 87% 30.07 in 10.0 mi SW 8.1 mph - N/A   Scattered Clouds
6:51 AM 68.0 °F - 64.9 °F 90% 30.08 in 10.0 mi WSW 8.1 mph - N/A   Scattered Clouds
7:33 AM 69.8 °F - 66.2 °F 88% 30.09 in 10.0 mi WSW 9.2 mph - N/A   Scattered Clouds
7:51 AM 71.1 °F - 66.0 °F 84% 30.08 in 10.0 mi WSW 10.4 mph - N/A   Mostly Cloudy
8:51 AM 73.9 °F - 66.9 °F 79% 30.08 in 10.0 mi SW 11.5 mph - N/A   Scattered Clouds
9:51 AM 78.1 °F - 68.0 °F 71% 30.07 in 10.0 mi SW 8.1 mph - N/A   Partly Cloudy
10:51 AM 81.0 °F 83.8 °F 68.0 °F 65% 30.06 in 10.0 mi West 5.8 mph - N/A   Partly Cloudy
11:51 AM 84.0 °F 87.8 °F 69.1 °F 61% 30.06 in 10.0 mi Variable 3.5 mph - N/A   Scattered Clouds
12:51 PM 86.0 °F 89.4 °F 68.0 °F 55% 30.04 in 10.0 mi Calm Calm - N/A   Scattered Clouds
1:51 PM 88.0 °F 90.3 °F 66.0 °F 48% 30.01 in 10.0 mi WSW 9.2 mph - N/A   Scattered Clouds
2:51 PM 88.0 °F 90.3 °F 66.0 °F 48% 29.99 in 10.0 mi West 6.9 mph - N/A   Scattered Clouds
3:51 PM 87.1 °F 89.2 °F 66.0 °F 49% 29.97 in 10.0 mi WSW 8.1 mph - 0.00 in Rain Light Rain
4:28 PM 82.4 °F 83.9 °F 64.4 °F 54% 30.00 in 10.0 mi NW 25.3 mph 41.4 mph 0.00 in Thunderstorm Thunderstorm
4:43 PM 71.6 °F - 64.4 °F 78% 30.02 in 1.0 mi West 19.6 mph 35.7 mph 0.00 in Rain , Thunderstorm Heavy Thunderstorms and Rain
4:51 PM 68.0 °F - 64.0 °F 87% 29.99 in 1.0 mi WSW 10.4 mph 25.3 mph 0.06 in Rain , Thunderstorm Heavy Thunderstorms and Rain
4:58 PM 68.0 °F - 64.4 °F 88% 29.99 in 3.0 mi West 8.1 mph 17.3 mph 0.07 in Rain , Thunderstorm Thunderstorms and Rain
5:34 PM 69.8 °F - 66.2 °F 88% 29.99 in 6.0 mi WSW 6.9 mph - 0.12 in Rain Light Rain
5:51 PM 70.0 °F - 66.9 °F 90% 29.97 in 5.0 mi Calm Calm - 0.16 in Rain Light Rain
6:51 PM 71.6 °F - 66.2 °F 83% 29.98 in 10.0 mi SW 3.5 mph - N/A   Overcast
7:51 PM 71.6 °F - 66.2 °F 83% 29.97 in 10.0 mi Calm Calm - N/A   Overcast
8:51 PM 70.0 °F - 66.0 °F 87% 29.97 in 10.0 mi Calm Calm - N/A   Overcast
9:51 PM 68.0 °F - 64.9 °F 90% 29.98 in 10.0 mi WSW 3.5 mph - N/A   Mostly Cloudy
11:51 PM 68.0 °F - 64.0 °F 87% 29.99 in 10.0 mi Calm Calm - N/A   Mostly Cloudy